{"data":{"norad_id":68901,"epoch":"2026-05-25T02:30:03.415680Z","epoch_age_seconds":63163,"freshness":"FRESH","line1":"1 68901U 26097G   26145.10420620  .00041160  00000+0  75360-3 0  9996","line2":"2 68901  97.2877 340.8726 0000521 102.7351 257.3959 15.49224072  3945","mean_motion":15.49224072,"eccentricity":5.21e-5,"inclination_deg":97.2877,"raan_deg":340.8726,"arg_perigee_deg":102.7351,"mean_anomaly_deg":257.3959,"bstar":0.0007536,"rev_number":394,"period_min":92.949756334538,"perigee_km":418.64055152648,"apogee_km":419.34881264776,"semimajor_km":6797.1316820871,"source":"CELESTRAK","updated_at":"2026-05-25T13:38:22.067308Z"}}